RH
32 31 33 39 45 46 37 29 29 34 35 35 36 44 46 49 64 70 71 61 64 73 72 77 79 82 74 66 64 74 65 64 67 69 72 95 100 100 100 100 100 100 100
36 39 42 44 38 35 41 47 53 61 69 65 65 66 58 57 54 51 51 52 50 47 48 51 57 55 56 62 63 60 63 61 65 70 81 83 80 83 98 100 100 100 100
35 38 38 41 45 47 57 65 73 80 77 54 43 42 44 45 39 40 53 52 55 73 81 77 80 84 80 69 67 62 60 64 70 74 60 44 49 58 58 61 60 65 84
30 32 38 42 45 52 56 68 76 69 55 50 50 49 49 54 62 70 72 66 57 64 87 96 81 54 44 52 52 59 65 63 46 42 36 39 41 35 42 50 51 57 68
35 42 42 45 49 55 64 63 57 55 58 68 76 84 75 74 67 52 40 42 44 47 48 51 49 54 58 56 62 72 57 58 56 54 51 61 68 75 64 71 76 75 71
47 48 51 56 58 60 63 63 72 77 77 86 94 95 90 70 60 52 50 40 42 45 46 52 58 68 80 81 75 75 86 72 58 68 97 86 94 99 88 80 86 78 74
55 57 72 78 75 87 90 100 100 96 91 80 68 70 60 65 43 36 36 36 46 48 48 64 70 74 76 81 88 62 74 68 85 99 92 88 82 91 89 89 94 82 71
63 60 68 80 78 81 99 96 87 77 71 67 64 70 79 74 71 56 44 44 56 51 64 80 86 68 59 56 52 63 77 70 84 98 93 90 93 100 93 92 88 74 68
60 64 98 100 99 95 82 74 73 73 72 87 97 90 76 67 67 72 70 56 45 35 42 63 62 63 44 42 55 70 73 85 94 92 87 92 98 83 86 86 70 66 64
76 74 70 67 64 58 61 70 88 100 79 53 50 49 46 48 51 50 46 38 50 63 52 57 46 43 52 64 65 74 89 87 92 87 75 96 91 89 95 87 67 52 58
68 62 58 64 68 68 64 61 56 58 62 45 35 35 40 45 54 59 69 59 74 89 60 56 48 62 74 78 79 85 95 75 73 68 74 82 89 100 100 83 69 48 55
70 76 75 79 71 62 57 58 69 74 76 46 48 52 60 55 46 43 46 67 76 71 44 51 54 69 78 77 75 81 78 66 70 75 78 82 96 100 100 92 60 49 49
77 81 86 91 85 81 84 91 92 90 61 45 52 60 55 51 48 56 62 69 70 43 41 49 58 65 65 61 66 66 64 64 72 82 85 80 87 95 100 83 52 54 43
100 100 100 100 100 100 100 100 94 79 64 49 38 46 39 43 48 82 76 82 71 40 44 52 53 56 50 45 54 59 62 62 68 69 69 74 65 81 75 66 56 56 38
100 100 100 100 100 93 91 93 79 70 56 39 33 37 52 78 90 100 89 78 50 40 50 49 52 51 51 54 60 54 48 52 55 50 61 64 67 63 75 63 44 55 30
100 100 99 98 98 91 72 61 52 42 40 44 43 50 67 80 92 81 61 43 43 48 43 43 46 44 46 60 58 49 45 46 52 52 57 59 61 61 61 57 40 44 25
61 64 64 48 37 36 31 28 23 31 35 35 43 47 62 56 50 36 28 31 37 36 36 35 38 37 42 61 55 47 47 48 51 48 49 51 55 56 51 36 35 28 24
55 52 44 30 25 20 19 29 38 44 52 50 35 40 36 35 24 24 24 26 25 26 31 35 38 34 47 52 53 46 42 38 42 44 42 40 51 33 30 24 28 22 25
37 28 25 22 24 24 35 38 46 32 26 27 30 26 27 24 24 24 25 27 28 31 33 32 32 38 39 45 47 48 43 36 34 34 33 28 27 26 20 26 23 23 31
26 28 34 41 34 25 27 26 26 23 25 25 27 28 29 30 32 33 34 35 33 34 37 39 40 41 45 43 40 34 27 23 25 29 26 22 15 18 22 22 21 22 44
27 26 26 25 25 23 24 26 26 28 30 32 33 35 36 35 34 30 30 29 28 30 35 35 34 30 28 28 24 20 18 18 19 21 18 14 16 20 24 21 19 24 54
38 39 40 40 40 40 39 39 40 39 38 36 34 34 32 27 23 22 25 22 19 19 20 19 19 18 18 18 16 16 14 13 16 16 15 17 22 23 20 16 20 26 72
39 36 34 30 28 25 22 18 16 16 15 16 14 14 13 11 12 12 12 12 14 11 12 11 13 13 13 15 13 11 11 13 15 16 18 20 21 18 14 17 22 26 92
33 33 32 29 23 16 14 12 10 8 9 9 8 8 10 11 10 10 11 14 12 6 6 8 9 11 12 11 11 11 12 14 14 14 16 21 14 12 16 20 23 32 81
31 28 24 20 16 12 11 10 9 9 9 9 9 9 11 12 12 12 10 7 7 7 8 8 9 10 11 10 9 10 11 12 14 18 17 10 11 14 20 22 22 25 58
16 14 12 10 8 8 8 8 9 8 8 8 8 10 9 7 7 7 7 8 8 8 7 8 8 9 8 10 11 11 12 14 17 15 8 9 12 17 22 20 18 15 35
Wind_Speed
25 21 20 18 19 21 20 21 22 23 25 28 32 33 35 36 36 38 41 42 44 45 49 53 53 54 58 59 61 64 68 70 73 76 79 82 83 83 84 85 84 84 83
21 20 19 20 21 21 22 24 25 26 27 29 33 35 37 40 42 42 43 44 47 50 52 55 58 59 61 61 65 70 68 78 78 80 79 81 83 86 90 93 92 93 93
20 21 23 23 24 26 27 29 30 31 32 32 35 35 36 40 43 44 47 53 54 56 59 62 65 65 67 69 72 75 79 81 81 79 84 82 82 85 89 89 90 89 90
23 24 27 29 31 32 32 33 34 34 36 39 40 42 45 47 49 52 55 59 59 61 64 66 69 71 75 80 79 81 84 81 81 81 80 81 81 80 81 88 91 92 90
27 30 31 33 35 36 36 37 40 41 43 44 46 48 49 50 55 59 61 60 63 66 68 71 74 78 81 84 84 82 81 81 82 80 80 81 85 85 87 85 91 92 95
30 32 34 36 37 38 40 42 45 47 50 53 55 56 58 60 63 68 64 66 67 70 76 78 80 83 84 84 82 79 76 76 78 82 82 82 82 89 92 95 96 97 95
32 32 34 36 39 41 44 47 50 52 54 55 55 58 62 66 68 68 69 75 78 83 85 86 89 89 87 79 77 74 75 78 78 83 85 86 87 94 96 98 96 99 98
36 39 41 43 45 47 50 53 56 59 63 65 68 68 68 70 73 75 77 79 81 85 88 90 92 91 82 76 73 83 79 80 82 87 89 91 94 96 101 101 103 104 98
42 45 48 49 49 51 55 60 62 65 67 68 70 72 77 79 81 83 86 87 90 96 97 96 91 82 76 76 78 81 81 83 84 87 90 93 97 97 102 108 109 104 95
45 47 50 54 56 58 58 61 62 64 70 77 79 82 83 83 84 87 90 92 93 93 95 90 79 77 78 80 79 80 82 84 86 89 91 96 100 101 105 107 108 105 95
53 56 58 61 61 63 64 65 69 72 77 78 80 84 84 85 87 90 94 96 95 92 88 82 78 77 78 81 83 84 86 84 86 87 93 97 102 106 108 109 109 106 94
59 61 65 69 71 72 74 76 78 82 84 88 90 93 94 95 96 99 100 98 94 85 82 82 80 78 82 85 85 87 88 88 89 92 98 100 106 109 110 111 110 100 90
69 70 73 76 80 82 83 86 86 86 88 90 96 98 97 98 99 102 104 100 93 81 81 79 81 82 84 89 94 96 96 98 98 101 105 105 110 110 114 113 107 97 85
74 78 82 82 83 84 87 90 92 95 95 97 102 100 100 103 102 105 106 105 94 86 84 82 82 85 86 92 96 97 98 97 99 104 106 108 110 109 113 111 105 93 81
81 82 83 86 90 93 96 98 100 102 102 106 111 112 109 109 109 107 107 92 89 89 89 89 92 93 95 101 106 108 105 103 104 107 110 112 113 110 112 111 102 90 76
88 89 92 94 97 102 104 105 105 107 110 115 118 116 109 105 106 103 96 94 93 94 94 96 98 96 101 108 112 115 115 114 111 111 115 116 115 111 110 106 98 84 73
97 98 101 103 102 100 101 102 107 115 118 121 117 108 102 99 99 95 95 95 97 98 101 103 103 104 108 113 118 122 124 119 115 118 115 116 114 117 109 102 90 79 70
106 106 106 104 104 104 107 111 115 113 109 106 103 104 100 97 96 100 101 101 104 106 109 111 113 114 116 121 123 128 124 120 118 119 114 110 113 110 108 97 82 74 68
111 108 108 111 112 117 117 111 111 101 100 100 103 103 105 107 109 112 114 115 116 118 119 120 120 123 123 125 130 132 129 123 120 116 113 110 111 105 99 85 75 71 64
113 114 117 117 112 108 107 108 108 106 112 111 114 116 117 119 120 120 122 124 124 125 127 128 129 130 131 131 130 129 122 116 111 111 110 110 109 99 85 77 72 62 58
101 103 107 109 113 113 117 119 120 121 123 124 126 127 129 129 129 128 129 129 130 131 134 134 134 132 129 124 122 121 119 116 112 109 106 98 87 78 72 72 62 56 55
116 119 121 124 127 129 130 131 132 132 133 132 133 133 134 134 133 134 134 133 131 130 131 129 127 124 120 119 120 120 120 113 102 98 92 81 73 68 66 62 55 53 54
127 129 132 134 136 134 133 131 128 127 125 125 127 129 131 131 133 133 131 127 127 127 127 126 126 125 122 117 115 106 98 91 83 76 70 66 67 64 57 54 52 51 52
136 136 136 135 132 130 130 128 125 126 125 124 125 127 128 128 128 128 129 131 130 123 113 108 107 104 103 102 97 92 83 74 71 68 65 63 62 52 52 51 49 49 51
114 119 122 125 126 128 128 126 125 125 126 126 127 127 126 126 127 129 127 124 116 106 101 97 91 88 87 88 86 82 77 73 68 63 63 58 50 49 48 47 47 47 44
110 107 114 111 113 117 121 122 121 120 122 120 119 119 117 117 116 113 109 105 98 96 95 91 84 83 80 79 75 71 67 62 57 59 54 47 46 45 44 44 43 39 38
Wind_Direction
226 222 225 237 253 264 267 273 280 286 284 283 280 277 279 283 286 289 290 290 288 291 293 294 296 297 299 297 296 300 301 301 301 302 301 301 300 302 302 303 304 304 305
215 225 240 251 254 258 270 279 280 280 282 286 285 283 284 285 286 290 292 292 295 294 296 298 299 298 300 297 297 297 302 303 303 304 306 301 301 301 302 302 302 303 302
232 243 245 246 253 265 269 273 277 279 282 281 284 285 288 286 288 293 294 296 299 298 298 299 299 301 301 301 300 300 305 305 304 305 307 305 302 303 303 302 302 302 301
236 240 246 252 259 265 270 273 274 275 278 280 283 286 286 288 292 294 296 298 299 295 293 294 297 299 300 299 299 301 304 305 302 302 306 309 307 307 306 307 307 307 304
239 247 256 263 268 272 276 278 276 277 280 284 285 287 287 289 291 295 299 300 300 297 298 296 296 297 298 300 302 303 305 307 309 309 308 307 306 306 308 306 307 308 307
253 260 265 268 271 274 275 278 280 281 284 285 286 285 289 293 296 297 298 300 299 299 300 298 299 300 304 302 303 304 306 306 307 304 305 307 307 308 309 310 309 311 310
263 266 269 271 271 273 277 280 281 282 284 286 288 287 289 293 298 297 296 301 302 301 299 300 302 304 304 304 303 304 305 304 301 306 306 306 309 311 310 311 311 313 312
266 267 268 271 274 274 275 278 281 284 286 287 288 290 292 293 297 297 298 301 301 303 303 302 301 302 301 299 301 300 300 302 301 307 308 309 310 312 312 312 312 313 313
266 268 272 275 276 278 281 282 283 284 285 288 290 291 292 294 295 298 300 299 298 299 301 303 297 298 298 297 299 299 299 302 305 307 308 310 311 314 313 313 313 313 312
269 271 271 274 277 280 281 282 282 284 290 293 293 293 293 294 295 296 298 298 299 299 299 298 296 296 295 296 298 300 302 304 306 307 310 310 310 311 312 311 312 315 314
268 270 274 277 278 279 280 281 284 287 292 293 295 296 295 295 296 297 297 298 299 299 297 295 293 293 295 296 299 301 302 306 306 310 309 310 310 311 311 311 313 314 312
270 273 276 278 279 281 284 284 286 288 294 297 297 297 296 297 296 293 291 292 295 294 293 292 291 294 296 298 299 299 301 304 306 308 309 310 309 310 310 311 312 312 310
278 280 280 282 284 285 285 286 289 290 293 296 298 296 295 293 293 294 295 293 293 289 291 291 290 294 296 299 298 299 300 303 305 306 306 307 308 308 308 310 312 309 305
279 280 280 280 282 284 285 287 288 291 291 292 293 294 291 290 290 295 293 292 290 289 290 291 292 295 298 298 297 299 300 302 303 302 303 305 305 306 307 307 309 306 302
278 279 279 280 282 284 286 287 288 288 288 289 290 293 293 294 294 293 292 290 285 287 289 291 292 294 296 297 297 299 300 300 301 302 302 302 302 303 304 305 307 302 298
279 281 282 282 283 283 283 284 285 285 285 288 289 291 291 290 291 288 287 286 284 286 288 289 290 291 292 295 297 297 297 299 299 298 300 300 302 302 302 301 302 297 294
278 280 280 282 283 283 284 285 282 284 286 286 287 286 285 287 287 284 283 283 284 286 286 287 288 290 290 292 294 295 297 297 297 296 297 298 299 299 299 297 297 294 290
282 283 285 283 284 283 282 281 285 288 287 287 286 288 288 287 284 284 285 285 287 288 288 289 289 290 291 291 291 294 294 294 294 294 294 294 295 296 295 295 293 289 286
285 286 284 283 284 284 289 288 289 292 291 291 291 290 290 291 290 289 289 288 287 287 288 290 290 289 288 289 290 290 290 291 292 292 292 293 293 292 292 291 289 286 281
284 283 283 286 287 286 287 286 287 285 287 290 288 288 289 289 287 287 287 288 288 288 288 287 288 288 287 287 288 288 289 290 292 294 292 293 293 289 288 286 286 280 275
286 286 286 286 285 286 285 285 286 286 287 287 287 287 287 287 286 285 284 285 286 286 286 286 286 286 287 287 288 291 292 292 293 292 291 292 288 285 283 285 281 274 270
287 287 286 285 285 285 284 283 283 284 284 285 285 286 286 286 284 283 284 286 286 285 284 283 284 285 287 288 290 291 291 291 290 289 287 287 283 281 282 278 273 269 265
286 286 286 286 287 287 286 287 286 286 287 287 285 284 284 284 284 283 284 285 285 286 285 285 286 287 288 289 289 289 290 290 288 285 283 281 280 282 276 270 266 263 259
287 286 287 288 288 288 288 288 288 287 286 285 284 284 283 284 285 286 285 286 287 288 289 290 288 288 286 287 286 286 285 285 287 284 281 279 279 274 269 268 262 259 257
285 285 286 286 285 284 285 285 286 284 283 283 284 284 285 285 286 287 288 288 290 289 288 289 289 288 286 285 283 282 283 283 282 278 278 276 271 267 266 262 258 259 256
282 284 280 282 284 283 282 283 284 285 285 286 287 286 286 286 286 287 287 289 288 288 288 288 286 286 284 284 284 282 280 280 276 275 272 268 265 263 260 257 257 256 252